Home   Weather   Jaipur   Past weeks

Flag for India Past Weather in Jaipur, Rajasthan, India — Yesterday and Last 2 Weeks

Now
61 °F

Haze.


Feels Like: 61 °F
Forecast: 54 / 86 °F
Wind: No wind

Location: Jaipur / Sanganer

Current Time: Feb 27, 2017 at 3:15:42 am

Latest Report: Feb 27, 2017 at 2:30 am


Visibility: 2 mi

Pressure: 29.95 "Hg

Humidity: 36%

Dew Point: 34 °F

Location of JaipurLocation

Past Weather in Jaipur — Graph

°F

Jaipur Temperature Yesterday

Maximum temperature yesterday: 82 °F (at 1:30 pm)
Minimum temperature yesterday: 57 °F (at 7:30 am)
Average temperature yesterday: 73 °F

High & Low Weather Summary for the Past Weeks

 TemperatureHumidityPressure
High91 °F (Feb 19, 2:00 pm)77% (Feb 14, 5:00 am)30.27 "Hg (Feb 14, 5:00 am)
Low50 °F (Feb 14, 5:30 am)6% (Feb 22, 3:30 pm)29.00 "Hg (Feb 21, 7:30 pm)
Average71 °F32%30.04 "Hg
* Reported Feb 12 1:30 am — Feb 27 2:00 am, Jaipur, Weather by CustomWeather, © 2017

Note: Actual official high and low records may vary slightly from our data, if they occured in-between our weather recording intervals... More about our weather records

Advertising

Jaipur Weather History for the Previous 24 Hours

Scroll right to see more
 ConditionsComfort  
Time TempWeatherWind HumidityBarometerVisibility
2:00 am
Mon, Feb 27
64 °FHaze.No wind30%29.95 "Hg2 mi
1:30 am63 °FHaze.No wind37%29.95 "Hg2 mi
1:00 am63 °FHaze.No wind34%29.98 "Hg2 mi
12:30 am64 °FHaze.No wind30%29.98 "Hg2 mi
12:00 am64 °FHaze.No wind32%29.98 "Hg2 mi
11:30 pm
Sun, Feb 26
66 °FHaze.No wind30%29.98 "Hg3 mi
11:00 pm66 °FHaze.No wind30%29.98 "Hg2 mi
10:30 pm66 °FHaze.No wind30%29.98 "Hg2 mi
10:00 pm68 °FHaze.No wind26%29.98 "Hg2 mi
9:30 pm72 °FHaze.2 mph23%29.95 "Hg2 mi
9:00 pm73 °FHaze.2 mph22%29.95 "Hg2 mi
8:30 pm75 °FHaze.3 mph19%29.95 "Hg2 mi
8:00 pm75 °FHaze.1 mph19%29.95 "Hg2 mi
7:30 pm75 °FHaze.No wind18%29.95 "Hg3 mi
7:00 pm77 °FHaze.No wind14%29.92 "Hg3 mi
6:30 pm79 °FHaze.1 mph12%29.92 "Hg3 mi
6:00 pm81 °FClear.6 mph11%29.92 "Hg4 mi
5:30 pm81 °FClear.7 mph11%29.92 "HgN/A
5:00 pm82 °FClear.9 mph9%29.92 "Hg4 mi
4:30 pm82 °FClear.7 mph10%29.92 "Hg4 mi
4:00 pm82 °FClear.7 mph8%29.92 "Hg4 mi
3:30 pm82 °FClear.5 mph10%29.92 "Hg4 mi
3:00 pm82 °FClear.7 mph10%29.92 "Hg4 mi
2:30 pm82 °FClear.7 mph13%29.95 "Hg4 mi
2:00 pm82 °FHaze.6 mph13%29.95 "Hg3 mi
1:30 pm82 °FHaze.6 mph14%29.98 "Hg3 mi
1:00 pm81 °FHaze.2 mph14%29.98 "Hg3 mi
12:30 pm79 °FHaze.3 mph13%30.01 "Hg3 mi
12:00 pm79 °FHaze.1 mph17%30.01 "Hg3 mi
11:30 am79 °FHaze.1 mph18%30.04 "Hg3 mi
11:00 am75 °FHaze.3 mph19%30.04 "Hg2 mi
10:30 am75 °FHaze.2 mph21%30.04 "Hg2 mi
10:00 am73 °FHaze.2 mph22%30.04 "Hg2 mi
9:30 am73 °FHaze.2 mph25%30.04 "Hg2 mi
9:00 am72 °FHaze.2 mph31%30.01 "Hg2 mi
8:30 am68 °FHaze.No wind35%30.01 "Hg2 mi
8:00 am63 °FHaze.No wind49%29.98 "Hg2 mi
7:30 am57 °FHaze.No wind51%29.98 "Hg2 mi
7:00 am59 °FHaze.No wind48%29.98 "Hg2 mi
6:30 am61 °FHaze.No wind45%29.95 "Hg2 mi
6:00 am59 °FHaze.No wind48%29.95 "Hg2 mi
5:30 am61 °FHaze.No wind45%29.95 "Hg2 mi
5:00 am64 °FHaze.No wind37%29.95 "Hg2 mi
4:30 am63 °FHaze.No wind39%29.92 "Hg2 mi
4:00 am64 °FMild.No wind37%29.95 "HgN/A
Weather by CustomWeather, © 2017

See weather overviewHow to use our weather pages